GAOFEN-2

Last updated on Sun Apr 12 2026 00:02:35 GMT+0000 (Coordinated Universal Time)

1 40118U 14049A 26101.48544178 .00001083 00000+0 14728-3 0 9999 2 40118 98.0161 165.7429 0008833 89.5237 270.6987 14.80825440629362
UTC large
Height (km)
Speed (km/s)
/
Latitude / Longitude
Inclination (degrees)
Orbital Period (minutes)
Azimuth
Elevation
Range (km)
Doppler Factor

Next 0 passes for location: London (51.5072 / 0.1276)

Sorry there are no passes over London.
GAOFEN-2